QPF
0.00 0.00 0.00 0.00 0.00 0.00 0.00 0.00 0.00 0.00 0.00 0.00 0.00 0.00 0.00 0.00 0.00 0.00 0.00 0.00 0.00 0.00 0.00 0.00 0.00 0.00 0.00 0.00 0.00 0.00 0.00 0.00 0.00 0.00 0.00 0.00 0.01 0.03 0.04 0.04 0.05 0.10 0.09
0.00 0.00 0.00 0.00 0.00 0.00 0.00 0.00 0.00 0.00 0.00 0.00 0.00 0.00 0.00 0.00 0.00 0.00 0.00 0.00 0.00 0.00 0.00 0.00 0.00 0.00 0.00 0.00 0.00 0.00 0.00 0.00 0.00 0.00 0.00 0.00 0.00 0.00 0.01 0.03 0.06 0.12 0.16
0.00 0.00 0.00 0.00 0.00 0.00 0.00 0.00 0.00 0.00 0.00 0.00 0.00 0.00 0.00 0.00 0.00 0.00 0.00 0.00 0.00 0.00 0.00 0.00 0.00 0.00 0.00 0.00 0.00 0.00 0.00 0.00 0.00 0.00 0.00 0.00 0.00 0.00 0.00 0.00 0.02 0.09 0.17
0.00 0.00 0.00 0.00 0.00 0.00 0.00 0.00 0.00 0.00 0.00 0.00 0.00 0.00 0.00 0.00 0.00 0.00 0.00 0.00 0.00 0.00 0.00 0.00 0.00 0.00 0.00 0.00 0.00 0.00 0.00 0.00 0.00 0.00 0.00 0.00 0.00 0.00 0.00 0.00 0.00 0.03 0.09
0.00 0.00 0.00 0.00 0.00 0.00 0.00 0.00 0.00 0.00 0.00 0.00 0.00 0.00 0.00 0.00 0.00 0.00 0.00 0.00 0.00 0.00 0.00 0.00 0.00 0.00 0.00 0.00 0.00 0.00 0.00 0.00 0.00 0.00 0.00 0.00 0.00 0.00 0.00 0.00 0.00 0.01 0.04
0.00 0.00 0.00 0.00 0.00 0.00 0.00 0.00 0.00 0.00 0.00 0.00 0.00 0.00 0.00 0.00 0.00 0.00 0.00 0.00 0.00 0.00 0.00 0.00 0.00 0.00 0.00 0.00 0.00 0.00 0.00 0.00 0.00 0.00 0.00 0.00 0.00 0.00 0.00 0.00 0.00 0.00 0.00
0.00 0.00 0.00 0.00 0.00 0.00 0.00 0.00 0.00 0.00 0.00 0.00 0.00 0.00 0.00 0.00 0.00 0.00 0.00 0.00 0.00 0.00 0.00 0.00 0.00 0.00 0.00 0.00 0.00 0.00 0.00 0.00 0.00 0.00 0.00 0.01 0.00 0.00 0.00 0.00 0.00 0.00 0.00
0.00 0.00 0.00 0.00 0.00 0.00 0.00 0.00 0.00 0.00 0.00 0.00 0.00 0.00 0.00 0.00 0.00 0.00 0.00 0.00 0.00 0.00 0.00 0.00 0.00 0.00 0.00 0.00 0.00 0.00 0.00 0.00 0.00 0.00 0.00 0.01 0.01 0.00 0.00 0.00 0.00 0.00 0.00
0.00 0.00 0.00 0.00 0.00 0.00 0.00 0.00 0.00 0.00 0.00 0.00 0.00 0.00 0.00 0.00 0.00 0.00 0.00 0.00 0.00 0.00 0.00 0.00 0.00 0.00 0.00 0.00 0.00 0.00 0.00 0.00 0.00 0.00 0.00 0.00 0.01 0.00 0.00 0.00 0.00 0.00 0.00
0.00 0.00 0.00 0.00 0.00 0.00 0.00 0.00 0.00 0.00 0.00 0.00 0.00 0.00 0.00 0.00 0.00 0.00 0.00 0.00 0.00 0.00 0.00 0.00 0.00 0.00 0.00 0.00 0.00 0.00 0.00 0.00 0.00 0.00 0.00 0.00 0.00 0.00 0.00 0.00 0.00 0.00 0.00
0.00 0.00 0.00 0.00 0.00 0.00 0.00 0.00 0.00 0.00 0.00 0.00 0.00 0.00 0.00 0.00 0.00 0.00 0.00 0.00 0.00 0.00 0.00 0.00 0.00 0.00 0.00 0.00 0.00 0.00 0.00 0.00 0.00 0.00 0.00 0.00 0.00 0.00 0.00 0.00 0.00 0.00 0.00
0.00 0.00 0.00 0.00 0.00 0.00 0.00 0.00 0.00 0.00 0.00 0.00 0.00 0.00 0.00 0.00 0.00 0.00 0.00 0.00 0.00 0.00 0.00 0.00 0.00 0.00 0.00 0.00 0.00 0.00 0.00 0.00 0.00 0.00 0.00 0.00 0.00 0.00 0.00 0.00 0.00 0.00 0.00
0.00 0.00 0.00 0.00 0.00 0.00 0.00 0.00 0.00 0.00 0.00 0.00 0.00 0.00 0.00 0.00 0.00 0.00 0.00 0.00 0.00 0.00 0.00 0.00 0.00 0.00 0.00 0.00 0.00 0.00 0.00 0.00 0.00 0.00 0.00 0.00 0.00 0.00 0.00 0.00 0.00 0.00 0.00
0.00 0.00 0.00 0.00 0.00 0.00 0.00 0.00 0.00 0.00 0.00 0.00 0.00 0.00 0.00 0.00 0.00 0.00 0.00 0.00 0.00 0.00 0.00 0.00 0.00 0.00 0.00 0.00 0.00 0.00 0.00 0.00 0.00 0.00 0.00 0.00 0.00 0.00 0.00 0.00 0.00 0.00 0.00
0.00 0.00 0.00 0.00 0.01 0.01 0.00 0.00 0.00 0.00 0.00 0.00 0.00 0.00 0.00 0.00 0.00 0.00 0.00 0.00 0.00 0.00 0.00 0.00 0.00 0.00 0.00 0.00 0.00 0.00 0.00 0.00 0.00 0.00 0.00 0.00 0.00 0.00 0.00 0.01 0.00 0.00 0.00
0.00 0.00 0.00 0.00 0.00 0.00 0.00 0.00 0.00 0.00 0.00 0.00 0.00 0.00 0.00 0.00 0.00 0.00 0.00 0.00 0.00 0.00 0.00 0.00 0.00 0.00 0.00 0.00 0.00 0.00 0.00 0.00 0.00 0.00 0.00 0.01 0.01 0.02 0.02 0.00 0.00 0.00 0.00
0.00 0.00 0.00 0.00 0.00 0.00 0.00 0.00 0.00 0.00 0.00 0.00 0.00 0.00 0.00 0.00 0.00 0.00 0.00 0.00 0.00 0.00 0.00 0.00 0.00 0.00 0.00 0.00 0.00 0.00 0.00 0.00 0.00 0.00 0.00 0.01 0.01 0.00 0.03 0.03 0.00 0.00 0.00
0.00 0.00 0.00 0.00 0.00 0.00 0.00 0.00 0.00 0.00 0.00 0.00 0.00 0.00 0.00 0.00 0.00 0.00 0.00 0.00 0.00 0.00 0.00 0.00 0.00 0.00 0.00 0.00 0.00 0.00 0.01 0.00 0.00 0.00 0.00 0.00 0.01 0.04 0.01 0.00 0.00 0.00 0.00
0.00 0.00 0.00 0.00 0.00 0.00 0.00 0.00 0.00 0.00 0.00 0.00 0.00 0.00 0.00 0.00 0.00 0.00 0.00 0.00 0.00 0.00 0.02 0.03 0.01 0.00 0.00 0.00 0.00 0.00 0.00 0.00 0.00 0.00 0.00 0.00 0.00 0.03 0.13 0.05 0.00 0.00 0.00
0.00 0.00 0.00 0.00 0.00 0.00 0.00 0.00 0.00 0.00 0.00 0.00 0.00 0.00 0.00 0.00 0.00 0.00 0.00 0.00 0.00 0.02 0.01 0.01 0.01 0.00 0.00 0.00 0.00 0.00 0.00 0.00 0.00 0.00 0.00 0.00 0.00 0.03 0.06 0.12 0.03 0.00 0.00
0.00 0.00 0.00 0.00 0.00 0.00 0.00 0.00 0.00 0.00 0.00 0.00 0.00 0.00 0.00 0.00 0.00 0.00 0.00 0.00 0.00 0.01 0.01 0.01 0.01 0.01 0.01 0.00 0.00 0.00 0.00 0.00 0.00 0.00 0.00 0.00 0.00 0.01 0.03 0.04 0.03 0.00 0.00
0.00 0.00 0.00 0.00 0.00 0.00 0.00 0.00 0.00 0.00 0.00 0.00 0.00 0.00 0.00 0.00 0.00 0.00 0.00 0.00 0.00 0.01 0.02 0.01 0.00 0.01 0.02 0.02 0.01 0.00 0.00 0.00 0.00 0.00 0.00 0.00 0.00 0.00 0.00 0.01 0.01 0.00 0.00
0.00 0.00 0.00 0.00 0.00 0.00 0.00 0.00 0.00 0.00 0.00 0.00 0.00 0.00 0.00 0.00 0.00 0.00 0.00 0.00 0.01 0.01 0.02 0.03 0.02 0.01 0.01 0.00 0.00 0.00 0.00 0.00 0.00 0.00 0.00 0.00 0.00 0.00 0.00 0.00 0.00 0.00 0.00
0.00 0.00 0.00 0.00 0.00 0.00 0.00 0.00 0.00 0.00 0.00 0.00 0.00 0.00 0.00 0.00 0.00 0.00 0.02 0.02 0.00 0.00 0.00 0.00 0.01 0.01 0.01 0.01 0.00 0.00 0.00 0.00 0.00 0.00 0.00 0.00 0.00 0.00 0.00 0.00 0.00 0.00 0.00
0.00 0.00 0.00 0.00 0.00 0.00 0.00 0.00 0.00 0.00 0.00 0.00 0.00 0.00 0.00 0.00 0.00 0.01 0.02 0.00 0.00 0.00 0.00 0.00 0.00 0.00 0.01 0.03 0.02 0.03 0.01 0.00 0.00 0.00 0.00 0.00 0.00 0.00 0.00 0.00 0.00 0.00 0.00
0.00 0.00 0.00 0.00 0.00 0.00 0.00 0.00 0.00 0.00 0.00 0.00 0.00 0.00 0.00 0.00 0.01 0.01 0.03 0.01 0.01 0.00 0.01 0.00 0.00 0.00 0.00 0.00 0.00 0.01 0.02 0.02 0.02 0.01 0.00 0.00 0.00 0.00 0.00 0.00 0.00 0.00 0.00
MSLP
1022.28 1022.22 1022.23 1022.02 1022.13 1022.34 1022.40 1022.28 1022.00 1021.87 1021.83 1021.76 1021.69 1021.71 1021.65 1021.49 1021.20 1020.81 1020.48 1020.14 1019.86 1019.63 1019.39 1019.11 1018.84 1018.60 1018.52 1018.56 1018.66 1018.75 1018.83 1018.93 1018.96 1018.72 1018.52 1018.55 1018.38 1018.49 1018.21 1018.06 1017.88 1018.13 1018.50
1022.08 1022.15 1022.20 1022.45 1022.58 1022.50 1022.47 1022.36 1022.23 1022.17 1022.09 1022.00 1021.95 1021.93 1021.87 1021.69 1021.35 1021.02 1020.67 1020.30 1020.03 1019.77 1019.68 1019.35 1019.08 1018.84 1018.52 1018.27 1018.33 1018.41 1018.35 1018.28 1018.17 1018.07 1018.01 1017.93 1017.98 1018.07 1017.89 1017.78 1017.80 1017.77 1017.82
1022.26 1022.57 1022.65 1022.76 1022.77 1022.63 1022.55 1022.47 1022.48 1022.50 1022.56 1022.38 1022.31 1022.14 1021.90 1021.59 1021.33 1021.12 1020.92 1020.77 1020.63 1020.44 1020.25 1019.81 1019.49 1019.09 1018.85 1018.49 1018.20 1018.09 1018.04 1017.99 1017.91 1017.69 1017.51 1017.70 1017.74 1017.74 1017.72 1017.75 1017.71 1017.81 1017.42
1022.77 1022.92 1022.98 1023.08 1023.07 1022.90 1022.84 1022.82 1022.96 1022.93 1022.92 1022.77 1022.60 1022.45 1022.25 1021.78 1021.59 1021.43 1021.35 1021.29 1021.21 1021.05 1020.87 1020.56 1020.05 1019.50 1019.12 1018.85 1018.33 1017.99 1017.84 1017.73 1017.58 1017.61 1017.66 1017.66 1017.73 1017.61 1017.28 1017.30 1017.46 1017.45 1017.36
1022.77 1022.77 1023.07 1023.26 1023.24 1023.26 1023.28 1023.27 1023.38 1023.25 1023.20 1023.00 1022.72 1022.53 1022.35 1022.06 1021.93 1021.59 1021.64 1021.62 1021.67 1021.59 1021.42 1021.04 1020.62 1020.18 1019.56 1018.95 1018.57 1018.19 1017.71 1017.43 1017.23 1017.00 1017.00 1017.06 1017.20 1017.23 1017.35 1017.35 1017.35 1017.11 1017.11
1023.00 1023.10 1023.40 1023.50 1023.49 1023.47 1023.66 1023.58 1023.53 1023.40 1023.39 1023.41 1022.95 1022.67 1022.28 1021.96 1022.04 1022.03 1022.03 1021.88 1021.83 1021.75 1021.57 1021.33 1021.02 1020.61 1020.12 1019.50 1018.84 1018.34 1017.95 1017.33 1016.88 1016.65 1016.41 1016.36 1016.32 1016.25 1016.36 1016.64 1016.76 1017.00 1016.90
1023.74 1023.69 1023.83 1023.77 1023.71 1023.93 1024.16 1024.00 1023.86 1023.89 1023.72 1023.57 1023.31 1022.91 1022.38 1022.12 1022.06 1022.13 1022.23 1022.29 1022.16 1021.99 1021.77 1021.45 1021.22 1020.85 1020.33 1019.79 1019.22 1018.56 1017.89 1017.49 1017.05 1016.59 1016.22 1016.17 1016.07 1016.16 1016.19 1016.30 1016.54 1016.83 1016.82
1024.21 1024.12 1024.07 1024.05 1024.01 1024.08 1024.20 1024.06 1024.08 1024.27 1024.22 1024.07 1024.16 1023.81 1023.19 1022.71 1022.31 1022.00 1022.13 1022.34 1022.56 1022.32 1021.87 1021.43 1021.16 1020.70 1020.31 1019.99 1019.38 1018.61 1018.15 1017.62 1017.11 1016.69 1016.26 1016.04 1015.97 1015.91 1016.13 1016.43 1016.62 1016.75 1016.48
1024.39 1024.18 1024.08 1024.09 1024.12 1023.99 1024.00 1024.07 1023.98 1023.96 1024.37 1024.44 1024.48 1024.53 1024.21 1023.85 1023.48 1022.65 1022.31 1022.49 1022.50 1022.41 1022.18 1021.96 1021.39 1020.82 1020.27 1019.80 1019.35 1018.73 1017.98 1017.63 1017.23 1016.64 1016.09 1015.72 1015.61 1015.51 1015.80 1015.97 1016.22 1016.16 1016.28
1024.40 1024.10 1024.04 1024.18 1024.25 1024.42 1024.28 1024.21 1024.27 1024.32 1024.45 1024.83 1024.71 1024.52 1024.60 1024.69 1024.30 1023.33 1022.90 1022.68 1022.59 1022.42 1022.29 1022.15 1021.76 1021.05 1020.33 1019.87 1019.28 1018.64 1018.01 1017.36 1016.87 1016.44 1015.93 1015.35 1015.13 1015.02 1015.26 1015.39 1015.61 1015.84 1015.91
1024.20 1024.43 1024.30 1024.22 1024.35 1024.57 1024.56 1024.51 1024.41 1024.49 1024.74 1025.01 1025.13 1025.01 1024.82 1024.66 1024.49 1024.48 1023.51 1023.24 1022.87 1022.47 1022.25 1021.90 1021.55 1021.12 1020.37 1019.80 1019.29 1018.50 1017.80 1017.20 1016.72 1016.23 1015.77 1015.19 1014.87 1014.40 1014.93 1015.03 1015.12 1015.18 1015.27
1024.41 1024.29 1024.36 1024.65 1024.94 1025.08 1025.13 1025.16 1025.05 1024.82 1024.94 1024.96 1025.14 1025.11 1025.22 1025.19 1024.86 1024.61 1024.37 1024.01 1023.46 1022.36 1022.32 1022.16 1021.51 1020.90 1020.33 1019.72 1018.96 1018.22 1017.47 1016.86 1016.34 1016.05 1015.79 1015.23 1014.88 1014.86 1014.93 1014.99 1015.12 1015.14 1015.17
1024.38 1024.47 1024.76 1024.98 1025.04 1025.10 1025.11 1025.05 1025.14 1025.34 1025.30 1024.94 1025.00 1025.12 1024.99 1025.02 1024.82 1024.63 1024.45 1024.02 1023.66 1023.02 1022.36 1022.03 1021.41 1020.68 1020.09 1019.54 1018.83 1018.01 1017.17 1016.52 1015.95 1015.61 1015.59 1015.49 1015.25 1014.99 1014.93 1015.13 1015.07 1015.13 1015.20
1024.36 1024.27 1024.37 1024.47 1024.35 1024.26 1024.46 1024.61 1024.80 1024.93 1025.07 1024.86 1024.87 1024.89 1024.88 1024.75 1024.64 1024.62 1024.43 1024.17 1023.55 1023.17 1022.58 1021.87 1021.27 1020.55 1019.87 1019.33 1018.60 1017.89 1017.19 1016.37 1015.71 1015.39 1015.22 1015.13 1015.11 1015.10 1014.66 1015.14 1015.16 1015.25 1015.23
1023.74 1023.90 1024.20 1024.30 1024.57 1024.39 1024.82 1024.83 1025.01 1024.68 1024.65 1024.53 1024.65 1024.64 1024.84 1024.58 1024.70 1024.62 1024.37 1024.45 1024.36 1023.06 1021.97 1021.47 1021.14 1020.39 1019.64 1019.03 1018.29 1017.93 1017.41 1016.50 1015.81 1015.28 1015.12 1014.98 1015.09 1014.94 1014.87 1014.89 1015.07 1015.21 1015.29
1023.85 1023.97 1024.17 1024.24 1024.66 1024.45 1024.11 1024.37 1024.45 1024.34 1024.51 1024.62 1024.56 1024.57 1024.71 1024.60 1024.53 1024.34 1024.37 1024.24 1024.03 1023.64 1022.32 1021.54 1020.59 1020.07 1019.40 1018.63 1018.02 1017.84 1017.59 1016.88 1016.11 1015.52 1015.14 1014.92 1014.78 1014.74 1014.85 1014.79 1015.11 1014.91 1015.30
1023.66 1023.81 1023.92 1023.95 1024.29 1024.03 1024.11 1024.38 1024.36 1024.32 1024.39 1024.41 1024.45 1024.46 1024.48 1024.42 1024.28 1024.18 1024.15 1023.92 1023.65 1023.34 1022.45 1021.14 1020.54 1019.62 1019.09 1018.38 1017.84 1017.60 1017.47 1017.15 1016.61 1015.75 1015.29 1015.13 1014.71 1014.55 1014.80 1014.91 1014.87 1014.80 1015.07
1023.74 1023.51 1023.70 1023.93 1023.94 1023.77 1023.91 1024.12 1024.06 1024.06 1024.19 1024.30 1024.25 1024.26 1024.16 1024.03 1024.03 1023.95 1023.88 1023.68 1023.28 1022.77 1022.33 1021.10 1020.14 1019.35 1018.74 1017.75 1017.45 1017.58 1017.33 1017.15 1016.96 1016.06 1015.53 1015.22 1014.78 1014.44 1014.54 1014.90 1014.95 1014.72 1015.12
1023.99 1023.93 1023.70 1023.62 1023.51 1023.56 1023.73 1023.67 1023.70 1023.86 1024.08 1024.06 1024.06 1023.96 1023.87 1023.88 1023.79 1023.64 1023.49 1023.18 1022.71 1022.10 1021.60 1020.86 1019.75 1019.22 1018.45 1017.89 1017.38 1017.09 1017.25 1017.05 1016.95 1016.49 1015.95 1015.51 1015.13 1014.67 1014.24 1014.32 1014.61 1014.88 1014.67
1024.05 1023.71 1023.46 1023.32 1023.13 1023.28 1023.53 1023.52 1023.68 1023.82 1023.90 1023.94 1023.91 1023.84 1023.72 1023.60 1023.39 1023.11 1022.81 1022.51 1022.08 1021.69 1021.10 1020.49 1019.78 1019.07 1018.42 1017.67 1017.45 1017.33 1017.16 1017.02 1016.81 1016.42 1016.31 1015.83 1015.54 1015.23 1014.48 1014.61 1014.51 1014.37 1014.52
1023.83 1023.47 1023.31 1023.06 1023.07 1023.28 1023.42 1023.57 1023.69 1023.77 1023.92 1023.91 1023.85 1023.72 1023.46 1023.18 1022.61 1022.36 1022.08 1021.89 1021.70 1021.14 1020.62 1019.98 1019.39 1018.84 1018.44 1018.05 1017.54 1017.44 1017.21 1016.90 1016.69 1016.52 1016.33 1016.02 1015.71 1015.57 1015.19 1014.47 1015.06 1014.49 1014.34
1023.63 1023.43 1023.34 1023.13 1023.32 1023.53 1023.48 1023.47 1023.54 1023.84 1023.91 1023.88 1023.76 1023.62 1023.37 1022.90 1022.53 1022.12 1021.94 1021.44 1021.06 1020.55 1020.11 1019.67 1019.14 1018.78 1018.22 1018.11 1017.90 1017.78 1017.61 1017.29 1016.92 1016.55 1016.45 1016.26 1016.02 1015.67 1015.62 1015.35 1015.28 1014.81 1014.55
1023.64 1023.47 1023.57 1023.74 1023.71 1023.70 1023.63 1023.67 1023.94 1024.08 1024.11 1024.10 1023.90 1023.61 1023.18 1022.65 1022.52 1022.07 1021.50 1020.90 1020.37 1019.88 1019.42 1019.08 1018.72 1018.44 1018.01 1017.80 1017.70 1017.69 1017.62 1017.41 1017.08 1016.75 1016.72 1016.33 1016.23 1016.04 1015.71 1015.57 1015.22 1015.24 1015.04
1023.50 1023.49 1023.71 1024.04 1023.89 1023.86 1023.87 1023.99 1023.99 1024.20 1024.26 1024.12 1023.86 1023.55 1023.13 1022.68 1022.21 1021.58 1020.90 1020.25 1019.88 1019.28 1018.90 1018.70 1018.39 1018.10 1017.85 1017.66 1017.48 1017.19 1017.17 1017.17 1017.06 1016.77 1016.84 1016.57 1016.24 1015.97 1015.73 1015.59 1015.39 1015.21 1015.33
1023.41 1023.53 1023.78 1023.99 1024.06 1024.18 1024.03 1023.99 1024.11 1024.28 1024.30 1024.05 1023.72 1023.39 1022.85 1022.44 1021.90 1021.18 1020.56 1019.98 1019.39 1018.74 1018.26 1018.00 1017.69 1017.43 1017.20 1016.99 1016.95 1016.72 1016.74 1016.84 1016.63 1016.44 1016.53 1016.57 1016.21 1016.05 1015.83 1015.44 1015.23 1015.09 1015.04
1023.28 1023.57 1023.99 1024.13 1024.25 1024.37 1024.25 1024.17 1024.21 1024.25 1024.27 1023.90 1023.52 1023.09 1022.72 1022.21 1021.48 1020.79 1020.39 1020.05 1019.41 1018.63 1018.26 1017.77 1017.51 1017.15 1016.84 1016.58 1016.35 1016.30 1016.28 1016.12 1016.22 1016.12 1015.97 1016.28 1015.98 1015.97 1015.75 1015.36 1015.17 1015.10 1015.24
Thickness
5606 5603 5601 5600 5596 5592 5589 5586 5585 5584 5581 5580 5579 5576 5574 5574 5575 5578 5581 5581 5581 5582 5583 5585 5586 5587 5587 5587 5587 5586 5584 5582 5580 5586 5592 5593 5597 5598 5604 5606 5611 5611 5611
5599 5596 5594 5590 5586 5584 5581 5578 5576 5574 5572 5571 5569 5567 5565 5564 5565 5566 5568 5570 5571 5572 5571 5573 5575 5577 5580 5581 5580 5581 5582 5583 5585 5586 5589 5593 5594 5595 5599 5603 5604 5606 5609
5590 5588 5585 5581 5577 5574 5571 5568 5566 5563 5560 5559 5557 5556 5555 5556 5556 5555 5555 5554 5555 5555 5555 5558 5561 5563 5567 5570 5573 5574 5575 5577 5579 5582 5587 5588 5589 5591 5593 5595 5598 5598 5603
5579 5578 5575 5570 5565 5563 5561 5557 5552 5549 5546 5545 5543 5541 5540 5541 5540 5540 5539 5538 5536 5536 5537 5538 5542 5547 5550 5553 5559 5564 5566 5568 5571 5572 5572 5575 5578 5581 5588 5590 5590 5593 5596
5572 5571 5564 5558 5554 5551 5548 5543 5539 5536 5534 5532 5531 5528 5525 5523 5522 5521 5520 5519 5518 5516 5516 5517 5521 5524 5530 5536 5540 5544 5551 5558 5560 5563 5567 5569 5569 5572 5574 5577 5580 5587 5591
5561 5555 5550 5546 5541 5538 5532 5528 5524 5521 5517 5514 5515 5512 5509 5506 5502 5499 5496 5495 5495 5493 5493 5496 5498 5502 5506 5512 5520 5525 5529 5535 5545 5551 5555 5559 5564 5569 5573 5574 5576 5576 5581
5547 5543 5538 5533 5528 5521 5514 5511 5505 5500 5497 5493 5491 5491 5488 5484 5480 5477 5472 5469 5467 5466 5467 5469 5472 5476 5481 5487 5494 5501 5509 5515 5520 5529 5539 5543 5548 5553 5559 5564 5566 5566 5570
5535 5530 5525 5519 5513 5506 5499 5494 5487 5479 5473 5467 5462 5459 5459 5460 5459 5457 5451 5446 5441 5440 5440 5440 5444 5449 5455 5460 5466 5476 5484 5491 5499 5505 5513 5524 5530 5535 5540 5543 5548 5552 5560
5521 5516 5510 5503 5496 5490 5484 5475 5470 5465 5455 5446 5438 5430 5423 5420 5416 5422 5421 5415 5412 5412 5410 5409 5412 5417 5423 5431 5439 5448 5458 5468 5474 5484 5492 5500 5511 5519 5523 5528 5533 5541 5546
5507 5502 5496 5488 5481 5473 5467 5459 5451 5440 5428 5415 5408 5402 5392 5383 5380 5387 5390 5388 5382 5379 5376 5376 5375 5382 5389 5396 5407 5419 5431 5441 5452 5460 5469 5479 5486 5497 5507 5515 5520 5526 5532
5498 5488 5482 5474 5465 5454 5443 5433 5425 5415 5404 5393 5383 5376 5368 5359 5347 5335 5341 5344 5346 5348 5344 5342 5343 5345 5351 5361 5375 5389 5400 5413 5424 5435 5445 5456 5466 5476 5483 5496 5502 5512 5519
5481 5473 5463 5451 5438 5427 5417 5410 5400 5389 5377 5366 5353 5342 5332 5324 5318 5310 5303 5302 5307 5322 5314 5309 5310 5314 5319 5328 5344 5358 5372 5385 5399 5409 5419 5430 5441 5450 5459 5468 5478 5488 5498
5466 5455 5444 5432 5422 5409 5397 5384 5370 5353 5341 5331 5321 5311 5303 5297 5294 5290 5285 5283 5282 5291 5291 5286 5287 5289 5295 5304 5316 5329 5345 5357 5372 5386 5395 5403 5411 5425 5436 5444 5455 5466 5477
5453 5444 5433 5418 5405 5390 5375 5358 5342 5329 5314 5306 5298 5290 5285 5280 5277 5272 5268 5264 5267 5267 5270 5272 5273 5273 5279 5285 5294 5304 5317 5330 5342 5357 5371 5380 5390 5399 5414 5421 5433 5444 5454
5441 5428 5412 5395 5376 5365 5348 5333 5317 5308 5297 5288 5281 5277 5270 5267 5260 5254 5249 5242 5238 5249 5260 5263 5261 5264 5268 5274 5280 5287 5295 5306 5317 5330 5342 5357 5368 5378 5389 5399 5412 5422 5433
5418 5403 5389 5374 5357 5342 5331 5313 5297 5285 5277 5270 5267 5262 5257 5253 5247 5243 5236 5231 5226 5223 5229 5242 5251 5253 5255 5264 5269 5273 5280 5289 5297 5306 5318 5330 5343 5356 5366 5377 5388 5403 5411
5402 5388 5373 5358 5338 5323 5304 5289 5279 5272 5265 5260 5255 5251 5246 5241 5237 5232 5224 5221 5217 5212 5211 5225 5229 5239 5243 5249 5257 5260 5264 5273 5281 5292 5300 5308 5321 5334 5344 5355 5367 5381 5390
5385 5369 5351 5332 5316 5302 5287 5275 5268 5261 5256 5251 5248 5243 5239 5234 5227 5220 5213 5208 5205 5204 5199 5207 5217 5223 5227 5237 5242 5245 5250 5256 5265 5277 5286 5296 5306 5315 5324 5333 5344 5358 5370
5364 5347 5330 5313 5299 5286 5275 5268 5261 5255 5250 5246 5241 5237 5232 5223 5217 5209 5204 5200 5199 5199 5194 5193 5206 5207 5215 5219 5226 5232 5236 5242 5248 5260 5271 5283 5292 5302 5312 5319 5326 5336 5350
5343 5328 5312 5297 5285 5276 5267 5262 5255 5250 5245 5240 5233 5227 5221 5212 5205 5200 5197 5193 5190 5187 5184 5183 5185 5191 5197 5205 5208 5214 5220 5228 5235 5245 5256 5269 5278 5287 5299 5306 5314 5325 5331
5325 5309 5295 5284 5274 5267 5260 5254 5249 5244 5237 5232 5225 5218 5211 5204 5199 5195 5191 5187 5180 5176 5172 5171 5171 5175 5179 5185 5193 5196 5204 5214 5223 5232 5244 5256 5267 5275 5284 5296 5298 5310 5317
5306 5293 5280 5272 5262 5256 5252 5247 5242 5235 5230 5224 5217 5211 5203 5197 5191 5188 5182 5178 5172 5166 5161 5158 5159 5159 5165 5168 5172 5178 5185 5197 5210 5221 5229 5241 5254 5264 5271 5280 5285 5295 5305
5286 5276 5265 5257 5250 5246 5242 5237 5231 5225 5220 5213 5208 5201 5195 5190 5184 5181 5178 5172 5166 5159 5153 5149 5150 5150 5152 5153 5158 5165 5171 5181 5194 5204 5215 5229 5240 5250 5259 5268 5275 5281 5290
5273 5262 5253 5245 5241 5238 5234 5229 5223 5217 5211 5204 5199 5193 5187 5182 5179 5177 5174 5169 5160 5153 5147 5142 5140 5141 5141 5143 5150 5158 5165 5174 5184 5194 5201 5214 5226 5238 5248 5256 5264 5271 5278
5262 5253 5245 5239 5234 5229 5225 5220 5215 5209 5203 5197 5192 5186 5181 5176 5174 5174 5170 5165 5157 5150 5144 5139 5138 5138 5139 5144 5148 5155 5162 5170 5181 5189 5193 5204 5216 5226 5236 5247 5256 5262 5269
5253 5245 5236 5231 5227 5221 5217 5212 5207 5201 5194 5191 5186 5180 5174 5172 5172 5172 5167 5159 5152 5148 5141 5138 5137 5137 5139 5143 5149 5154 5160 5170 5177 5182 5190 5199 5209 5219 5230 5238 5246 5252 5258